Location: Newark
(46.1292°N, 1.0086°W)
Time: 09:53:43
(UTC+00:00)

Vanguard 3 - Pass Details

Date: 21 November 2019
Orbit: 508 x 3263 km, 33.3° (Epoch: 16 December)

Event Time Altitude Azimuth Distance (km) Brightness Sun altitude
Rises 16:26:29 0° 264° (W) 7,199 13.5 -0.8°
Reaches altitude 10° 16:31:33 10° 260° (W) 6,203 13.2 -1.6°
Maximum altitude 16:49:48 50° 194° (SSW) 3,345 10.6 -4.4°
Drops below altitude 10° 17:02:45 10° 124° (SE) 4,520 10.6 -6.5°
Sets 17:05:48 0° 119° (ESE) 5,195 10.9 -7.0°
